OBJECT D, 60457

Orbit data source: Space-Track

You're viewing an Uncataloged Satellite

Recently launched and/or uncataloged satellites may have evolving metadata. Metadata may include but not limited to: Owner, Maufacturer, Bus, Motor, and Mission.

OBJECT D, 60457 is a satellite owned by ISRO (IN) in LEO that was launched on Fri, 16 Aug 2024 UTC launched from the Sirharikota (SRI). Unknown objects in Earth's orbit typically refer to objects detected orbiting the Earth but have not yet been identified or cataloged. These objects could be anything from previously untracked satellites, spent rocket stages, debris from satellite collisions, or even natural meteoroids temporarily captured by Earth's gravity.

Loading next visibility...
Identifier
60457, 2024-147D
Orbit
LEO
Country
Flag of ININ / IND
Related business
Manufacturer
ISRO
Mission
Spacecraft
Bus & Motor
VTM, Unknown motor
Mass
~200 kg wet, ~200 kg dry
Launch date (UTC)
2024-08-16 (1 year ago)
Launch vehicle
Unknown
Launch site
Sirharikota (SRI)
Object type
Unknown
Shape & HBR
Cyl, 1.0 m
Radar Cross Section
2.356 m², Large (>1 m²)

Expand to show TLE details & history
Last TLE update: 21 hours ago

TLE from 21 hours ago
0 OBJECT D
1 60457U 24147D   25258.51010088  .00105664  00000-0  69497-3 0  9995
2 60457  37.3570 293.7863 0016599 169.6607 190.4510 15.74251227 61500
Epoch: 2025-09-15T12:14Z
TLE epoch observation values (Epoch: 2025-09-15T12:14:32.716Z)
Latitude
0.00001°
Longitude
115.43627°
Altitude
356.877 km
Speed
7.691 km/s
True Right ascension
19h 35m 08s
True Declination
0° 00' 00"
Sunlit
Object was in full shadow at epoch
Visualization orbit readout
Latitude
Unknown
Longitude
Unknown
Altitude
Unknown
Speed
Unknown
Apparent Right ascension
Unknown
Apparent Declination
Unknown
Sunlit
N/A
Visualization observer readout
Local Sidereal Time
02:22:52
Azimuth
Unknown
Elevation
Unknown
Doppler factor
Unknown
Orbital elements
Apogee altitude
360.868 km
Perigee altitude
338.532 km
Semi-major axis
6,727.837 km
Eccentricity
0.00166
Inclination
37.357°
RAAN
293.7863°
Arg. of periapsis
169.6607°
True anomaly
190.41657°
Mean anomaly
190.451°
Eccentric anomaly
190.43378°
Mean motion
3.93305 °/min
Orbital period
91.53 mins
BSTAR
0.00069497
Loading maneuver chart data...
Computing Atmospheric mass density...
Loading historical data...
Loading historical data...
Loading historical data...
Loading historical data...
Loading historical data...
Loading historical data...
Loading historical data...
Other satellites on launch #147 in the year 2024 (2024-08-16 UTC)

Documentation

Showing up to 5 results
|